Regional Weather Roundup
Issued by NWS Sioux Falls, SD

Home | Current Version | Previous Version | Graphics & Text | Print | Product List | Glossary Off
Versions: 1 2 3 4 5 6 7 8 9 10 11 12 13 14 15 16 17 18 19 20 21 22 23 24 25 26 27 28 29 30 31 32 33 34 35 36 37 38 39 40 41 42 43 44 45 46 47 48 49 50

731
ASUS43 KFSD 240710
RWRFSD

WEATHER ROUNDUP FOR SE SOUTH DAKOTA/SW MINNESOTA/NW IOWA
NATIONAL WEATHER SERVICE SIOUX FALLS SD
100 AM CST TUE JAN 24 2017

NOTE: "FAIR" INDICATES FEW OR NO CLOUDS BELOW 12,000 FEET WITH NO
SIGNIFICANT WEATHER AND OR OBSTRUCTIONS TO VISIBILITY.


SDZ038>040-050-052>070-240800-
SOUTHEAST SOUTH DAKOTA

CITY           SKY/WX    TMP DP  RH WIND       PRES   REMARKS
BROOKINGS      CLOUDY    29  27  92 S7        29.79F WCI  22
CHAMBERLAIN    CLOUDY    32  31  97 E6        29.75F WCI  26
HURON          CLOUDY    31  29  92 E5        29.80S WCI  26
MADISON        CLOUDY    28  28 100 SE9         N/A  WCI  20
MITCHELL       CLOUDY    32  30  92 E8        29.79F WCI  25
SIOUX FALLS    CLOUDY    32  30  92 SE9       29.80F WCI  24
WINNER         CLOUDY    32  29  88 E7        29.72F WCI  26
YANKTON        CLOUDY    30  28  93 E8        29.78S WCI  23
$$

MNZ071-072-080-081-089-090-097-098-240800-
SOUTHWEST MINNESOTA

CITY           SKY/WX    TMP DP  RH WIND       PRES   REMARKS
FAIRMONT       CLOUDY    31  29  92 CALM      29.85F
JACKSON        CLOUDY    30  28  93 S3        29.83S
LUVERNE        CLOUDY    30  28  93 SE8       29.81F WCI  23
MARSHALL       CLOUDY   N/A N/A N/A SE5       29.84F
MONTEVIDEO     CLOUDY    30  30 100 CALM      29.86S
PIPESTONE      CLOUDY    30  30 100 S5        29.80S FOG     WCI  25
REDWOOD FALLS  CLOUDY    32  27  81 CALM      29.85S
TRACY          CLOUDY    32  29  90 CALM      29.84S
WINDOM         CLOUDY    30  28  93 CALM      29.83F
WORTHINGTON    CLOUDY    31  29  92 SE3       29.82S
$$

IAZ001>003-012>014-020>022-031-032-NEZ013-014-SDZ071-240800-
NORTHWEST IOWA

CITY           SKY/WX    TMP DP  RH WIND       PRES   REMARKS
CHEROKEE       CLOUDY    32  31  95 S7        29.82F WCI  26
DENISON        CLOUDY    30  28  93 SE7       29.80F WCI  23
ESTHERVILLE    CLOUDY    31  30  96 SE3       29.83F
LE MARS        CLOUDY    32  30  93 SE6       29.82F WCI  26
ORANGE CITY    CLOUDY    30  30 100 SE6       29.81S WCI  24
SHELDON        CLOUDY    32  32 100 SE7       29.80F WCI  26
SIOUX CITY     CLOUDY    33  30  88 SE9       29.81F WCI  25
SPENCER        CLOUDY    32  31  96 SE3       29.83F
STORM LAKE     CLOUDY    32  30  93 SE6       29.81F WCI  26
$$

ABBREVIATIONS USED IN REMARKS
   TC - TEMPERATURE IN CELSIUS
  WCI - WIND CHILL INDEX
   HX - HEAT INDEX
  VSB - VISIBILITY





USA.gov is the U.S. government's official web portal to all federal, state and local government web resources and services.